This is the latest recevied weather packets stored in our database for station/object AJ7DN. If no packets are shown the sender has not sent any weather packets the latest 10 day(s).
| Time | Temp. | Humidity | Pressure | Rain* | Wind** | Luminosity | Snow |
|---|---|---|---|---|---|---|---|
| 1777757059 | 19.44° C | 64% | 1018.1 hPa | 0 mm | - | 691 W/m² | - |
| 1777756756 | 18.89° C | 66% | 1018.3 hPa | 0 mm | - | 704 W/m² | - |
| 1777756451 | 17.78° C | 68% | 1018.2 hPa | 0 mm | - | 621 W/m² | - |
| 1777756149 | 17.78° C | 70% | 1018.3 hPa | 0 mm | - | 520 W/m² | - |
| 1777755845 | 17.22° C | 70% | 1018.5 hPa | 0 mm | - | 381 W/m² | - |
| 1777755543 | 17.22° C | 70% | 1018.5 hPa | 0 mm | - | 416 W/m² | - |
| 1777755238 | 17.22° C | 70% | 1018.6 hPa | 0 mm | - | 396 W/m² | - |
| 1777754936 | 17.78° C | 69% | 1018.8 hPa | 0 mm | - | 360 W/m² | - |
| 1777754633 | 17.78° C | 69% | 1018.7 hPa | 0 mm | - | 458 W/m² | - |
| 1777754330 | 17.22° C | 70% | 1018.9 hPa | 0 mm | - | 538 W/m² | - |
| 1777754028 | 17.22° C | 70% | 1018.9 hPa | 0 mm | - | 332 W/m² | - |
| 1777753723 | 17.22° C | 71% | 1019 hPa | 0 mm | - | 578 W/m² | - |
| 1777753421 | 16.67° C | 73% | 1019.2 hPa | 0 mm | - | 460 W/m² | - |
| 1777753119 | 16.11° C | 74% | 1019.4 hPa | 0 mm | - | 529 W/m² | - |
| 1777752815 | 16.11° C | 74% | 1019.5 hPa | 0 mm | - | 382 W/m² | - |
| 1777752511 | 15.56° C | 75% | 1019.3 hPa | 0 mm | - | 385 W/m² | - |
| 1777752207 | 15° C | 76% | 1019.2 hPa | 0 mm | - | 354 W/m² | - |
| 1777751905 | 15.56° C | 75% | 1019.6 hPa | 0 mm | - | 227 W/m² | - |
| 1777751601 | 15° C | 76% | 1019.8 hPa | 0 mm | - | 330 W/m² | - |
| 1777751298 | 15.56° C | 75% | 1019.5 hPa | 0 mm | - | 401 W/m² | - |
| 1777750995 | 15° C | 76% | 1019.5 hPa | 0 mm | - | 224 W/m² | - |
| 1777750691 | 15° C | 78% | 1019.5 hPa | 0 mm | - | 305 W/m² | - |
| 1777750388 | 15° C | 79% | 1019.5 hPa | 0 mm | - | 217 W/m² | - |
| 1777750084 | 14.44° C | 77% | 1019.6 hPa | 0 mm | - | 244 W/m² | - |
| 1777749781 | 14.44° C | 79% | 1019.8 hPa | 0 mm | - | 350 W/m² | - |
* Rain latest hour (hover to see other rain measurements)
** Current wind speed in m/s (hover to see current wind gust speed)